This demonstration page uses our WeatherBlox Daily Observations layout. Learn more.

Left ArrowRight Arrow

40.92945, -100.16068

Hourly Observations for October 4, 2020

Temp ( °F °C ) Dew Point ( °F °C ) Humidity (%) Winds ( mph kmh ) Pressure ( in mb ) Visibility ( mi km ) Precip ( " mm )
12:15 am 00:15 Partly Cloudy 44 6.9 37 2.6 74 74 SSE 5 7 30.24 1024 10 16 N/A
12:35 am 00:35 Partly Cloudy 44 6.4 37 2.6 77 77 S 3 6 30.25 1024 10 16 N/A
12:55 am 00:55 Partly Cloudy 43 6.3 37 2.6 77 77 N N/A 30.26 1025 10 16 N/A
1:15 am 01:15 Partly Cloudy 38 3.6 34 1.3 85 85 N N/A 30.28 1025 10 16 N/A
1:35 am 01:35 Mostly Cloudy 44 6.7 36 2.3 74 74 SSE 5 7 30.26 1025 7 11 N/A
1:55 am 01:55 Mostly Cloudy 44 6.9 37 2.8 75 75 SSW 5 7 30.26 1025 10 16 N/A
2:15 am 02:15 Partly Cloudy 45 7.4 37 3 74 74 S 3 6 30.27 1025 10 16 N/A
2:35 am 02:35 Partly Cloudy 43 5.9 36 2.4 78 78 SSE 3 6 30.28 1025 10 16 N/A
2:55 am 02:55 Clear 43 5.9 36 2.3 78 78 N N/A 30.28 1025 10 16 N/A
3:15 am 03:15 Clear 37 2.8 33 0.6 86 86 N N/A 30.31 1026 10 16 N/A
3:35 am 03:35 Clear 37 2.5 33 0.6 87 87 N N/A 30.31 1027 10 16 N/A
3:55 am 03:55 Clear 36 2.2 33 0.5 89 89 N N/A 30.31 1026 10 16 N/A
4:15 am 04:15 Clear 36 2.4 33 0.8 89 89 N N/A 30.30 1026 10 16 N/A
4:35 am 04:35 Clear 37 2.5 34 0.9 89 89 N N/A 30.30 1026 10 16 N/A
4:55 am 04:55 Clear 37 2.6 34 0.9 89 89 ENE 3 6 30.29 1026 10 16 N/A
5:15 am 05:15 Clear 36 2.2 33 0.7 90 90 E 5 7 30.30 1026 10 16 N/A
5:35 am 05:35 Clear 37 2.5 34 0.9 89 89 E 6 9 30.30 1026 10 16 N/A
5:55 am 05:55 Clear 37 2.7 34 1.2 90 90 E 5 7 30.30 1026 10 16 N/A
6:15 am 06:15 Clear 38 3.3 35 1.6 89 89 E 5 7 30.30 1026 10 16 N/A
6:35 am 06:35 Partly Cloudy 38 3.4 35 1.7 89 89 ESE 6 9 30.29 1026 10 16 N/A
6:55 am 06:55 Partly Cloudy 38 3.4 35 1.6 88 88 ESE 5 7 30.29 1026 10 16 N/A
7:15 am 07:15 Clear 39 3.9 36 2.1 88 88 SE 5 7 30.28 1025 10 16 N/A
7:35 am 07:35 Clear 38 3.3 35 1.7 89 89 ESE 3 6 30.29 1026 10 16 N/A
7:55 am 07:55 Sunny 37 2.8 34 1.3 90 90 E 3 6 30.29 1026 10 16 N/A
8:15 am 08:15 Sunny 37 3 35 1.6 91 91 E 3 6 30.29 1026 10 16 N/A
8:35 am 08:35 Sunny 40 4.5 36 2.4 86 86 SE 5 7 30.27 1025 10 16 N/A
8:55 am 08:55 Sunny 42 5.7 37 2.9 82 82 SE 3 6 30.26 1025 10 16 N/A
9:15 am 09:15 Sunny 44 6.7 38 3.5 80 80 SSE 6 9 30.25 1024 10 16 N/A
9:35 am 09:35 Sunny 48 8.7 40 4.3 74 74 SSE 6 9 30.22 1023 10 16 N/A
9:55 am 09:55 Sunny 52 11.1 40 4.5 64 64 S 8 13 30.20 1023 10 16 N/A
10:15 am 10:15 Sunny 55 12.6 39 4.1 56 56 S 10 17 30.19 1022 10 16 N/A
10:35 am 10:35 Sunny 57 14 39 4 51 51 SSE 8 13 30.16 1021 10 16 N/A
10:55 am 10:55 Sunny 60 15.5 39 3.7 46 46 S 10 17 30.15 1021 10 16 N/A
11:15 am 11:15 Sunny 60 15.8 38 3.5 44 44 SSE 9 15 30.15 1021 10 16 N/A
11:35 am 11:35 Sunny 63 17.1 38 3.4 40 40 S 14 22 30.13 1020 10 16 N/A
11:55 am 11:55 Sunny 65 18.2 38 3.4 38 38 S 12 19 30.11 1020 10 16 N/A
12:15 pm 12:15 Sunny 66 19 38 3.2 35 35 SSE 13 20 30.09 1019 10 16 N/A
12:35 pm 12:35 Sunny 68 20.2 38 3.1 32 32 S 15 24 30.07 1018 10 16 N/A
12:55 pm 12:55 Sunny 69 20.7 37 2.8 31 31 S 16 26 30.06 1018 10 16 N/A
1:15 pm 13:15 Sunny 70 21.1 37 2.8 30 30 S 17 28 30.05 1018 10 16 N/A
1:35 pm 13:35 Sunny 72 22.1 37 3 29 29 S 14 22 30.03 1017 10 16 N/A
1:55 pm 13:55 Sunny 72 22.4 37 2.8 28 28 S 18 30 30.02 1017 10 16 N/A
2:15 pm 14:15 Sunny 73 22.8 37 2.7 27 27 S 20 31 30.00 1016 10 16 N/A
2:35 pm 14:35 Sunny 74 23.4 37 3 26 26 SSW 21 33 29.99 1016 10 16 N/A
2:55 pm 14:55 Sunny 74 23.4 37 3 26 26 S 18 30 29.98 1015 10 16 N/A
3:15 pm 15:15 Sunny 75 23.8 37 2.7 25 25 S 17 28 29.96 1015 10 16 N/A
3:35 pm 15:35 Sunny 75 24.1 37 3 25 25 S 14 22 29.95 1014 10 16 N/A
3:55 pm 15:55 Sunny 76 24.5 37 3 25 25 S 18 30 29.93 1014 10 16 N/A
4:15 pm 16:15 Sunny 76 24.7 38 3.1 25 25 SSE 17 28 29.93 1014 10 16 N/A
4:35 pm 16:35 Sunny 76 24.6 37 2.9 24 24 S 18 30 29.92 1013 10 16 N/A
4:55 pm 16:55 Sunny 76 24.7 38 3.1 25 25 S 15 24 29.91 1013 10 16 N/A
5:15 pm 17:15 Sunny 76 24.7 38 3.2 25 25 SSE 17 28 29.90 1013 10 16 N/A
5:35 pm 17:35 Sunny 76 24.5 38 3.2 25 25 S 17 28 29.89 1012 10 16 N/A
5:55 pm 17:55 Sunny 76 24.2 37 3 25 25 SSE 14 22 29.90 1012 10 16 N/A
6:15 pm 18:15 Sunny 74 23.5 38 3.2 27 27 SSE 15 24 29.90 1013 10 16 N/A
6:35 pm 18:35 Sunny 73 22.7 38 3.5 29 29 SSE 14 22 29.90 1012 10 16 N/A
6:55 pm 18:55 Sunny 71 21.7 39 3.7 31 31 SSE 14 22 29.91 1013 10 16 N/A
7:15 pm 19:15 Sunny 69 20.7 39 4 33 33 SE 12 19 29.92 1013 10 16 N/A
7:35 pm 19:35 Clear 68 19.9 39 4 35 35 SE 10 17 29.93 1014 10 16 N/A
7:55 pm 19:55 Clear 67 19.2 39 4 37 37 SE 10 17 29.94 1014 10 16 N/A
8:15 pm 20:15 Clear 65 18.5 40 4.2 39 39 SE 10 17 29.95 1014 10 16 N/A
8:35 pm 20:35 Clear 64 18 40 4.2 40 40 SE 10 17 29.95 1014 10 16 N/A
8:55 pm 20:55 Clear 64 17.5 40 4.3 42 42 SE 13 20 29.94 1014 10 16 N/A
9:15 pm 21:15 Clear 62 16.8 40 4.3 44 44 SSE 13 20 29.96 1015 10 16 N/A
9:35 pm 21:35 Clear 62 16.5 40 4.3 45 45 SSE 14 22 29.95 1014 10 16 N/A
9:55 pm 21:55 Clear 61 16.1 40 4.5 46 46 SSE 14 22 29.96 1014 10 16 N/A
10:15 pm 22:15 Clear 61 16 40 4.5 47 47 SSE 14 22 29.95 1014 10 16 N/A
10:35 pm 22:35 Clear 61 16 40 4.2 46 46 SSE 14 22 29.95 1014 10 16 N/A
10:55 pm 22:55 Clear 60 15.7 40 4.3 47 47 S 13 20 29.96 1015 10 16 N/A
11:15 pm 23:15 Clear 60 15.6 40 4.3 47 47 S 14 22 29.95 1014 10 16 N/A
11:35 pm 23:35 Clear 60 15.4 40 4.3 48 48 S 14 22 29.95 1014 10 16 N/A
11:55 pm 23:55 Clear 59 14.9 40 4.2 49 49 S 14 22 29.95 1014 10 16 N/A

Powered by AerisWeather